Bemidji, MN

6:13 PM CST on February 27, 2017 (GMT -0600)
Bemidji-Beltrami County

Weather History for KBJI - October, 2012

Change the Weather History Date:

Wednesday, October 17, 2012

  Actual Average Record
Temperature  
Mean Temperature 48 °F -  
Max Temperature 52 °F 51 °F 79 °F (1961)
Min Temperature 43 °F 31 °F 2 °F (1952)
Degree Days  
Heating Degree Days 17    
Moisture  
Dew Point 46 °F    
Average Humidity 91    
Maximum Humidity 99    
Minimum Humidity 79    
Precipitation  
Precipitation 0.27 in - - ()
Sea Level Pressure  
Sea Level Pressure 29.15 in    
Wind  
Wind Speed 6 mph (SSE)    
Max Wind Speed 14 mph    
Max Gust Speed 17 mph    
Visibility 7 miles    
Events Rain    
Averages and records for this station are not official NWS values.
T = Trace of Precipitation, MM = Missing Value Source: NWS Daily Summary

Daily Weather History Graph

Daily Weather History Graph

Search for Another Location

Airport or City:

Trip Planner

Search our weather history database for the weather conditions in past years. The results will help you decide how hot, cold, wet, or windy it might be!

Date:

Astronomy

Oct. 17, 2012 Rise Set
Actual Time 7:42 AM CDT 6:27 PM CDT
Civil Twilight 7:10 AM CDT 6:58 PM CDT
Nautical Twilight 6:35 AM CDT 7:33 PM CDT
Astronomical Twilight 5:59 AM CDT 8:09 PM CDT
Moon 10:30 AM CDT (10/17) 7:50 PM CDT (10/17)
Length of Visible Light 11h 47m
Length of Day
10h 45m
Waxing Crescent, 7% of the Moon is Illuminated
Oct 17
Waxing Crescent
Oct 21
First Quarter
Oct 29
Full
Nov 6
Last Quarter
Nov 13
New

Hourly Weather History & Observations

Time (CDT) Temp. Windchill Dew Point Humidity Pressure Visibility Wind Dir Wind Speed Gust Speed Precip Events Conditions
12:15 AM 49.1 °F - 43.0 °F 79% 29.31 in 10.0 mi SE 3.5 mph - N/A   Clear
12:35 AM 48.9 °F - 43.0 °F 80% 29.31 in 10.0 mi SSE 5.8 mph - N/A   Clear
12:55 AM 48.7 °F - 43.0 °F 80% 29.31 in 10.0 mi SSE 4.6 mph - N/A   Clear
1:15 AM 48.0 °F - 42.4 °F 81% 29.30 in 10.0 mi SE 5.8 mph - N/A   Clear
1:35 AM 47.8 °F - 43.0 °F 83% 29.29 in 10.0 mi SE 4.6 mph - N/A   Clear
1:55 AM 48.7 °F - 43.3 °F 82% 29.29 in 10.0 mi SE 3.5 mph - N/A   Clear
2:15 AM 49.1 °F - 43.2 °F 80% 29.29 in 10.0 mi SE 3.5 mph - N/A   Clear
2:35 AM 49.1 °F - 43.0 °F 79% 29.28 in 10.0 mi Calm Calm - N/A   Clear
2:55 AM 49.1 °F - 43.2 °F 80% 29.28 in 10.0 mi Calm Calm - N/A   Clear
3:15 AM 48.0 °F - 43.2 °F 83% 29.27 in 10.0 mi East 3.5 mph - N/A   Mostly Cloudy
3:35 AM 47.1 °F - 43.3 °F 87% 29.26 in 10.0 mi ESE 3.5 mph - N/A   Overcast
3:55 AM 50.4 °F - 45.1 °F 82% 29.25 in 10.0 mi ESE 5.8 mph - N/A   Overcast
4:15 AM 51.6 °F - 45.9 °F 81% 29.24 in 10.0 mi SE 5.8 mph - N/A   Overcast
5:15 AM 51.6 °F - 45.9 °F 81% 29.23 in 10.0 mi SE 6.9 mph - N/A   Overcast
5:35 AM 51.8 °F - 46.0 °F 81% 29.21 in 10.0 mi ESE 8.1 mph - N/A   Overcast
5:55 AM 52.0 °F - 46.2 °F 81% 29.21 in 10.0 mi ESE 8.1 mph - N/A   Overcast
6:15 AM 51.8 °F - 46.4 °F 82% 29.20 in 10.0 mi ESE 8.1 mph - N/A   Overcast
6:55 AM 51.3 °F - 46.6 °F 84% 29.19 in 10.0 mi ESE 5.8 mph - N/A   Light Drizzle
7:15 AM 50.9 °F - 46.8 °F 86% 29.20 in 10.0 mi South 3.5 mph - N/A Rain Rain
7:35 AM 50.5 °F - 46.8 °F 87% 29.20 in 10.0 mi SE 5.8 mph - N/A   Light Drizzle
7:55 AM 50.0 °F - 46.8 °F 89% 29.19 in 10.0 mi SE 8.1 mph - N/A Rain Rain
8:15 AM 49.8 °F - 47.1 °F 90% 29.18 in 7.0 mi ESE 5.8 mph - N/A Rain Light Rain
8:35 AM 49.5 °F - 47.5 °F 93% 29.18 in 5.0 mi ESE 5.8 mph - N/A Rain Light Rain
8:55 AM 49.3 °F - 47.8 °F 95% 29.18 in 5.0 mi ESE 8.1 mph - N/A   Light Drizzle
9:15 AM 49.1 °F - 47.8 °F 95% 29.17 in 3.0 mi ESE 6.9 mph - 0.03 in Rain Rain
9:35 AM 48.9 °F - 48.2 °F 97% 29.16 in 2.0 mi NE 3.5 mph - 0.08 in Rain Rain
9:55 AM 48.7 °F - 48.2 °F 98% 29.16 in 2.5 mi East 8.1 mph - 0.09 in Rain Light Rain
10:15 AM 48.6 °F - 48.0 °F 98% 29.15 in 3.0 mi East 5.8 mph - N/A Rain Light Rain
10:35 AM 48.6 °F - 47.8 °F 97% 29.14 in 4.0 mi East 5.8 mph - 0.01 in Rain Rain
10:55 AM 48.6 °F - 47.8 °F 97% 29.12 in 2.5 mi ENE 5.8 mph - 0.01 in Rain Rain
11:35 AM 48.6 °F - 47.8 °F 97% 29.10 in 3.0 mi ENE 8.1 mph - 0.01 in Rain Light Rain
11:55 AM 48.6 °F - 47.8 °F 97% 29.09 in 3.0 mi ENE 8.1 mph - 0.03 in Rain Rain
12:15 PM 48.2 °F - 47.5 °F 97% 29.07 in 4.0 mi NE 4.6 mph - 0.01 in Rain Rain
12:35 PM 48.4 °F - 47.7 °F 97% 29.07 in 2.5 mi East 4.6 mph - 0.07 in Rain Rain
12:55 PM 48.4 °F - 47.7 °F 97% 29.07 in 3.0 mi East 5.8 mph - 0.11 in Rain Rain
1:15 PM 48.6 °F - 47.7 °F 97% 29.06 in 4.0 mi East 5.8 mph - 0.01 in   Drizzle
1:35 PM 48.4 °F - 47.3 °F 96% 29.05 in 5.0 mi ESE 5.8 mph - 0.01 in   Overcast
1:55 PM 48.4 °F - 47.5 °F 97% 29.05 in 2.5 mi ESE 5.8 mph - 0.01 in   Drizzle
2:15 PM 48.2 °F - 47.5 °F 97% 29.05 in 1.5 mi SE 5.8 mph - N/A   Drizzle
2:35 PM 48.2 °F - 47.7 °F 98% 29.04 in 1.5 mi SSE 5.8 mph - 0.01 in   Drizzle
2:55 PM 48.4 °F - 47.8 °F 98% 29.04 in 2.5 mi South 4.6 mph - 0.01 in Rain Light Rain
3:15 PM 48.6 °F - 48.2 °F 99% 29.04 in 2.5 mi South 6.9 mph - N/A   Light Drizzle
3:35 PM 48.6 °F - 48.0 °F 98% 29.05 in 3.0 mi South 5.8 mph - N/A   Drizzle
3:55 PM 48.9 °F - 47.8 °F 96% 29.05 in 7.0 mi WSW 12.7 mph 17.3 mph 0.01 in   Light Drizzle
4:15 PM 49.1 °F - 47.5 °F 94% 29.06 in 10.0 mi WSW 11.5 mph 17.3 mph N/A   Overcast
4:35 PM 48.7 °F - 47.1 °F 94% 29.07 in 7.0 mi SW 10.4 mph 16.1 mph N/A   Overcast
4:55 PM 48.2 °F - 46.8 °F 95% 29.07 in 10.0 mi SW 9.2 mph - N/A   Overcast
5:15 PM 48.4 °F - 46.9 °F 95% 29.08 in 7.0 mi SW 10.4 mph - N/A   Overcast
5:35 PM 48.2 °F - 46.6 °F 94% 29.09 in 10.0 mi SW 11.5 mph 16.1 mph N/A   Overcast
5:55 PM 48.2 °F - 46.4 °F 93% 29.09 in 10.0 mi SW 10.4 mph - N/A   Overcast
6:15 PM 47.8 °F - 46.4 °F 95% 29.10 in 7.0 mi SSW 9.2 mph - N/A   Overcast
6:35 PM 47.8 °F - 46.6 °F 95% 29.10 in 5.0 mi SW 10.4 mph - N/A   Overcast
6:55 PM 47.5 °F - 46.2 °F 95% 29.11 in 4.0 mi SW 13.8 mph 17.3 mph N/A   Overcast
7:15 PM 46.9 °F - 45.7 °F 95% 29.12 in 5.0 mi SW 9.2 mph - N/A   Overcast
7:35 PM 46.6 °F - 45.5 °F 96% 29.13 in 4.0 mi SSW 10.4 mph - N/A   Light Drizzle
7:55 PM 46.0 °F 41.0 °F 45.1 °F 97% 29.13 in 4.0 mi South 10.4 mph - N/A   Drizzle
8:15 PM 45.5 °F 40.3 °F 44.6 °F 97% 29.13 in 5.0 mi South 10.4 mph 16.1 mph N/A   Drizzle
8:35 PM 45.3 °F 40.1 °F 44.4 °F 97% 29.14 in 4.0 mi SSW 10.4 mph - N/A   Overcast
8:55 PM 45.0 °F 40.1 °F 44.1 °F 97% 29.14 in 7.0 mi South 9.2 mph - N/A   Overcast
9:35 PM 44.8 °F 40.4 °F 43.5 °F 95% 29.14 in 10.0 mi SSW 8.1 mph - N/A   Overcast
9:55 PM 44.6 °F 39.2 °F 43.2 °F 95% 29.14 in 10.0 mi SSW 10.4 mph - N/A   Overcast
10:15 PM 44.6 °F 40.7 °F 43.0 °F 94% 29.15 in 10.0 mi South 6.9 mph - N/A   Overcast
10:55 PM 44.2 °F 39.7 °F 42.8 °F 95% 29.15 in 10.0 mi SSW 8.1 mph - N/A   Overcast
11:15 PM 44.1 °F 40.8 °F 42.6 °F 95% 29.15 in 10.0 mi South 5.8 mph - N/A   Overcast
11:35 PM 44.1 °F 40.1 °F 42.1 °F 93% 29.14 in 10.0 mi South 6.9 mph - N/A   Overcast
11:55 PM 43.9 °F 40.5 °F 42.1 °F 93% 29.14 in 10.0 mi South 5.8 mph - N/A   Overcast